Change the Weather History Date:

Tuesday, December 4, 2012

  Actual Average Record
Temperature  
Mean Temperature -17 °F -1 °F  
Max Temperature -4 °F - 45 °F (2002)
Min Temperature -29 °F -9 °F -50 °F (1970)
Degree Days  
Heating Degree Days 82 66  
Month to date heating degree days 343 261  
Since 1 July heating degree days 4731 4393  
Cooling Degree Days 0    
Month to date cooling degree days 0  
Year to date cooling degree days 4 16  
Moisture  
Dew Point -18 °F    
Average Humidity 0    
Maximum Humidity 0    
Minimum Humidity 0    
Precipitation  
Precipitation 0.00 in 0.04 in 0.99 in (2011)
Month to date precipitation T 0.16  
Year to date precipitation 21.45 16.87  
Snow  
Snow 0.00 in 0.60 in 4.10 in (1983)
Month to date snowfall T 2.5  
Since 1 July snowfall 12.7 33.5  
Snow Depth 7.00 in    
Sea Level Pressure  
Sea Level Pressure 29.94 in    
Wind  
Wind Speed 7 mph (NNE)    
Max Wind Speed 15 mph    
Max Gust Speed 18 mph    
Visibility 10 miles    
Events      
T = Trace of Precipitation, MM = Missing Value Source: NWS Daily Summary

Daily Weather History Graph

Daily Weather History Graph

Search for Another Location

Airport or City:

Trip Planner

Search our weather history database for the weather conditions in past years. The results will help you decide how hot, cold, wet, or windy it might be!

Date:

Astronomy

Dec. 04, 2012 Rise Set
Actual Time 10:34 AM AKST 3:50 PM AKST
Civil Twilight 9:28 AM AKST 4:57 PM AKST
Nautical Twilight 8:25 AM AKST 6:00 PM AKST
Astronomical Twilight 7:29 AM AKST 6:56 PM AKST
Moon 11:21 PM AKST (12/4) 1:10 PM AKST (12/4)
Length of Visible Light 7h 28m
Length of Day
5h 15m
Waning Gibbous, 68% of the Moon is Illuminated
Dec 4
Waning Gibbous
Dec 6
Last Quarter
Dec 12
New
Dec 19
First Quarter
Dec 28
Full

Hourly Weather History & Observations

Time (AKST) Temp. Windchill Dew Point Humidity Pressure Visibility Wind Dir Wind Speed Gust Speed Precip Events Conditions
12:53 AM -6.0 °F -23.6 °F -14.1 °F 68% 30.05 in 10.0 mi NNE 10.4 mph - N/A   Clear
1:53 AM -7.1 °F -23.9 °F -15.0 °F 68% 30.04 in 10.0 mi North 9.2 mph - N/A   Clear
2:53 AM -7.1 °F -25.9 °F -15.0 °F 68% 30.03 in 10.0 mi NNE 11.5 mph - N/A   Clear
3:53 AM -7.1 °F -22.8 °F -15.0 °F 68% 30.02 in 10.0 mi NNE 8.1 mph - N/A   Clear
4:53 AM -9.0 °F -25.2 °F -16.1 °F 71% 30.01 in 10.0 mi NNE 8.1 mph - N/A   Clear
5:53 AM -9.0 °F -25.2 °F -16.1 °F 71% 30.00 in 10.0 mi NE 8.1 mph - N/A   Clear
6:53 AM -9.0 °F -23.8 °F -16.1 °F 71% 29.99 in 10.0 mi NNE 6.9 mph - N/A   Clear
7:53 AM -6.0 °F -23.6 °F -14.1 °F 68% 29.97 in 10.0 mi NNE 10.4 mph - N/A   Clear
8:53 AM -6.0 °F -24.6 °F -14.1 °F 68% 29.96 in 10.0 mi NNE 11.5 mph - N/A   Partly Cloudy
9:53 AM -7.1 °F -23.9 °F -15.0 °F 68% 29.95 in 10.0 mi NNE 9.2 mph - N/A   Partly Cloudy
10:53 AM -7.1 °F -25.0 °F -15.0 °F 68% 29.94 in 10.0 mi NE 10.4 mph - N/A   Partly Cloudy
11:53 AM -6.0 °F -21.5 °F -14.1 °F 68% 29.94 in 10.0 mi NNE 8.1 mph - N/A   Partly Cloudy
12:53 PM -6.0 °F -21.5 °F -14.1 °F 68% 29.92 in 10.0 mi NNE 8.1 mph - N/A   Scattered Clouds
1:53 PM -5.1 °F -22.5 °F -14.1 °F 65% 29.91 in 10.0 mi North 10.4 mph - N/A   Partly Cloudy
2:53 PM -5.1 °F -22.5 °F -14.1 °F 65% 29.89 in 10.0 mi NNE 10.4 mph - N/A   Partly Cloudy
3:53 PM -8.0 °F -21.0 °F -15.0 °F 71% 29.89 in 10.0 mi NNE 5.8 mph - N/A   Partly Cloudy
4:53 PM -9.9 °F -21.5 °F -16.1 °F 74% 29.88 in 10.0 mi North 4.6 mph - N/A   Clear
5:53 PM -9.9 °F -21.5 °F -16.1 °F 74% 29.88 in 10.0 mi NNE 4.6 mph - N/A   Clear
6:53 PM -17.0 °F -31.7 °F -23.1 °F 74% 29.88 in 10.0 mi SSE 5.8 mph - N/A   Clear
7:53 PM -18.9 °F -32.0 °F -25.1 °F 74% 29.88 in 10.0 mi SSE 4.6 mph - N/A   Clear
8:53 PM -22.0 °F - -29.0 °F 70% 29.87 in 10.0 mi Calm Calm - N/A   Clear
9:53 PM -24.0 °F - -29.0 °F 77% 29.88 in 10.0 mi Calm Calm - N/A   Clear
10:53 PM -27.9 °F - -34.1 °F 73% 29.88 in 10.0 mi Calm Calm - N/A   Clear
11:53 PM -27.9 °F -42.5 °F -35.0 °F 69% 29.87 in 10.0 mi South 4.6 mph - N/A   Clear